Date,TemperatureHighF,TemperatureAvgF,TemperatureLowF,DewpointHighF,DewpointAvgF,DewpointLowF,HumidityHigh,HumidityAvg,HumidityLow,PressureMaxIn,PressureMinIn,WindSpeedMaxMPH,WindSpeedAvgMPH,GustSpeedMaxMPH,PrecipitationSumIn
2014-1-1,70,58,51,-100,-100,-100,0,0,100,0.00,40.00,0,-999,0,0.00
2014-1-2,66,57,51,-100,-100,-100,0,0,100,0.00,40.00,0,-999,0,0.00
2014-1-3,71,56,49,-100,-100,-100,0,0,100,0.00,40.00,0,-999,0,0.00
2014-1-4,66,57,51,-100,-100,-100,0,0,100,0.00,40.00,0,-999,0,0.00
2014-1-5,66,56,52,-100,-100,-100,0,0,100,0.00,40.00,0,-999,0,0.00
2014-1-6,60,53,50,-100,-100,-100,0,0,100,0.00,40.00,0,-999,0,0.00
2014-1-7,61,50,44,-100,-100,-100,0,0,100,0.00,40.00,0,-999,0,0.00
2014-1-8,57,47,40,-100,-100,-100,0,0,100,0.00,40.00,0,-999,0,0.00
2014-1-9,54,46,42,-100,-100,-100,0,0,100,0.00,40.00,0,-999,0,0.00
2014-1-10,63,49,40,-100,-100,-100,0,0,100,0.00,40.00,0,-999,0,0.00
2014-1-11,48,45,42,-100,-100,-100,0,0,100,0.00,40.00,0,-999,0,0.04
2014-1-12,56,47,37,-100,-100,-100,0,0,100,0.00,40.00,0,-999,0,0.04
2014-1-13,66,57,50,-100,-100,-100,0,0,100,0.00,40.00,0,-999,0,0.00
2014-1-14,77,65,58,-100,-100,-100,0,0,100,0.00,40.00,0,-999,0,0.00
2014-1-15,76,67,60,-100,-100,-100,0,0,100,0.00,40.00,0,-999,0,0.00
2014-1-16,74,65,59,-100,-100,-100,0,0,100,0.00,40.00,0,-999,0,0.00
2014-1-17,72,60,55,-100,-100,-100,0,0,100,0.00,40.00,0,-999,0,0.00
2014-1-18,72,59,51,-100,-100,-100,0,0,100,0.00,40.00,0,-999,0,0.00
2014-1-19,69,57,51,-100,-100,-100,0,0,100,0.00,40.00,0,-999,0,0.00
2014-1-20,70,58,51,-100,-100,-100,0,0,100,0.00,40.00,0,-999,0,0.00
2014-1-21,71,58,52,-100,-100,-100,0,0,100,0.00,40.00,0,-999,0,0.00
2014-1-22,76,61,54,-100,-100,-100,0,0,100,0.00,40.00,0,-999,0,0.00
2014-1-23,64,58,52,-100,-100,-100,0,0,100,0.00,40.00,0,-999,0,0.00
2014-1-24,71,57,49,-100,-100,-100,0,0,100,0.00,40.00,0,-999,0,0.00
2014-1-25,73,60,51,-100,-100,-100,0,0,100,0.00,40.00,0,-999,0,0.00
2014-1-26,72,58,49,-100,-100,-100,0,0,100,0.00,40.00,0,-999,0,0.00
2014-1-27,62,54,48,-100,-100,-100,0,0,100,0.00,40.00,0,-999,0,0.00
2014-1-28,61,55,50,-100,-100,-100,0,0,100,0.00,40.00,0,-999,0,0.00
2014-1-29,55,52,46,-100,-100,-100,0,0,100,0.00,40.00,0,-999,0,0.08
2014-1-30,57,49,45,-100,-100,-100,0,0,100,0.00,40.00,0,-999,0,0.04
2014-1-31,58,47,37,-100,-100,-100,0,0,100,0.00,40.00,0,-999,0,0.00
2014-2-1,56,45,36,-100,-100,-100,0,0,100,0.00,40.00,0,-999,0,0.00
2014-2-2,39,35,33,-100,-100,-100,0,0,100,0.00,40.00,0,-999,0,0.68
2014-2-3,51,41,32,-100,-100,-100,0,0,100,0.00,40.00,0,-999,0,0.32
2014-2-4,51,41,33,-100,-100,-100,0,0,100,0.00,40.00,0,-999,0,0.04
2014-2-5,48,40,34,-100,-100,-100,0,0,100,0.00,40.00,0,-999,0,0.12
2014-2-6,43,40,37,-100,-100,-100,0,0,100,0.00,40.00,0,-999,0,0.96
2014-2-7,48,44,42,-100,-100,-100,0,0,100,0.00,40.00,0,-999,0,1.80
2014-2-8,53,50,47,-100,-100,-100,0,0,100,0.00,40.00,0,-999,0,4.92
2014-2-9,53,51,50,-100,-100,-100,0,0,100,0.00,40.00,0,-999,0,3.20
2014-2-10,58,52,47,-100,-100,-100,0,0,100,0.00,40.00,0,-999,0,0.32
2014-2-11,60,49,43,-100,-100,-100,0,0,100,0.00,40.00,0,-999,0,0.04
2014-2-12,57,50,45,-100,-100,-100,0,0,100,0.00,40.00,0,-999,0,0.00
2014-2-13,66,56,51,-100,-100,-100,0,0,100,0.00,40.00,0,-999,0,0.00
2014-2-14,59,52,50,-100,-100,-100,0,0,100,0.00,40.00,0,-999,0,0.04
2014-2-15,51,50,48,-100,-100,-100,0,0,100,0.00,40.00,0,-999,0,0.24
2014-2-16,60,48,39,-100,-100,-100,0,0,100,0.00,40.00,0,-999,0,0.24
2014-2-17,59,47,39,-100,-100,-100,0,0,100,0.00,40.00,0,-999,0,0.00
2014-2-18,60,51,43,-100,-100,-100,0,0,100,0.00,40.00,0,-999,0,0.00
2014-2-19,64,51,45,-100,-100,-100,0,0,100,0.00,40.00,0,-999,0,0.00
2014-2-20,67,53,43,-100,-100,-100,0,0,100,0.00,40.00,0,-999,0,0.00
2014-2-21,68,56,49,-100,-100,-100,0,0,100,0.00,40.00,0,-999,0,0.00
2014-2-22,68,56,48,-100,-100,-100,0,0,100,0.00,40.00,0,-999,0,0.00
2014-2-23,69,57,48,-100,-100,-100,0,0,100,0.00,40.00,0,-999,0,0.00
2014-2-24,71,58,49,-100,-100,-100,0,0,100,0.00,40.00,0,-999,0,0.00
2014-2-25,65,54,45,-100,-100,-100,0,0,100,0.00,40.00,0,-999,0,0.00
2014-2-26,51,48,45,-100,-100,-100,0,0,100,0.00,40.00,0,-999,0,1.64
2014-2-27,57,49,46,-100,-100,-100,0,0,100,0.00,40.00,0,-999,0,1.12
2014-2-28,50,48,46,-100,-100,-100,0,0,100,0.00,40.00,0,-999,0,2.00
2014-3-1,59,50,45,-100,-100,-100,0,0,100,0.00,40.00,0,-999,0,0.28
2014-3-2,52,48,44,-100,-100,-100,0,0,100,0.00,40.00,0,-999,0,0.12
2014-3-3,52,48,46,-100,-100,-100,0,0,100,0.00,40.00,0,-999,0,0.36
2014-3-4,58,50,46,-100,-100,-100,0,0,100,0.00,40.00,0,-999,0,0.36
2014-3-5,59,53,50,-100,-100,-100,0,0,100,0.00,40.00,0,-999,0,0.68
2014-3-6,60,50,43,-100,-100,-100,0,0,100,0.00,40.00,0,-999,0,0.08
2014-3-7,67,54,41,-100,-100,-100,0,0,100,0.00,40.00,0,-999,0,0.08
2014-3-8,69,58,48,-100,-100,-100,0,0,100,0.00,40.00,0,-999,0,0.00
2014-3-9,67,59,54,-100,-100,-100,0,0,100,0.00,40.00,0,-999,0,0.00
2014-3-10,67,54,43,-100,-100,-100,0,0,100,0.00,40.00,0,-999,0,0.04
2014-3-11,63,55,46,-100,-100,-100,0,0,100,0.00,40.00,0,-999,0,0.04
2014-3-12,67,58,50,-100,-100,-100,0,0,100,0.00,40.00,0,-999,0,0.00
2014-3-13,75,62,51,-100,-100,-100,0,0,100,0.00,40.00,0,-999,0,0.00
2014-3-14,75,58,43,-100,-100,-100,0,0,100,0.00,40.00,0,-999,0,0.00
2014-3-15,78,65,56,-100,-100,-100,0,0,100,0.00,40.00,0,-999,0,0.00
2014-3-16,77,65,53,-100,-100,-100,0,0,100,0.00,40.00,0,-999,0,0.00
2014-3-17,66,53,44,-100,-100,-100,0,0,100,0.00,40.00,0,-999,0,0.00
2014-3-18,67,56,48,-100,-100,-100,0,0,100,0.00,40.00,0,-999,0,0.00
2014-3-19,67,60,53,-100,-100,-100,0,0,100,0.00,40.00,0,-999,0,0.00
2014-3-20,74,60,49,-100,-100,-100,0,0,100,0.00,40.00,0,-999,0,0.00
2014-3-21,69,58,46,-100,-100,-100,0,0,100,0.00,40.00,0,-999,0,0.00
2014-3-22,70,58,41,-100,-100,-100,0,0,100,0.00,40.00,0,-999,0,0.00
2014-3-23,73,58,41,-100,-100,-100,0,0,100,0.00,40.00,0,-999,0,0.00
2014-3-24,75,62,50,-100,-100,-100,0,0,100,0.00,40.00,0,-999,0,0.00
2014-3-25,54,48,43,-100,-100,-100,0,0,100,0.00,40.00,0,-999,0,0.12
2014-3-26,53,46,42,-100,-100,-100,0,0,100,0.00,40.00,0,-999,0,0.80
2014-3-27,54,48,42,-100,-100,-100,0,0,100,0.00,40.00,0,-999,0,0.04
2014-4-9,76,68,57,-100,-100,-100,0,0,100,0.00,40.00,0,-999,0,0.00
2014-4-10,79,66,54,-100,-100,-100,0,0,100,0.00,40.00,0,-999,0,0.00
2014-4-11,74,62,48,-100,-100,-100,0,0,100,0.00,40.00,0,-999,0,0.00
2014-4-12,68,52,43,-100,-100,-100,0,0,100,0.00,40.00,0,-999,0,0.00
2014-4-13,78,59,45,-100,-100,-100,0,0,100,0.00,40.00,0,-999,0,0.00
2014-4-14,77,67,57,-100,-100,-100,0,0,100,0.00,40.00,0,-999,0,0.00
2014-4-15,76,62,48,-100,-100,-100,0,0,100,0.00,40.00,0,-999,0,0.00
2014-4-16,78,66,54,-100,-100,-100,0,0,100,0.00,40.00,0,-999,0,0.00
2014-4-17,75,64,55,-100,-100,-100,0,0,100,0.00,40.00,0,-999,0,0.00
2014-4-18,72,61,52,-100,-100,-100,0,0,100,0.00,40.00,0,-999,0,0.00
2014-4-19,70,56,45,-100,-100,-100,0,0,100,0.00,40.00,0,-999,0,0.00
2014-4-20,79,65,52,-100,-100,-100,0,0,100,0.00,40.00,0,-999,0,0.00
2014-4-21,68,57,47,-100,-100,-100,0,0,100,0.00,40.00,0,-999,0,0.00
2014-4-22,61,50,40,-100,-100,-100,0,0,100,0.00,40.00,0,-999,0,0.00
2014-4-23,67,52,38,-100,-100,-100,0,0,100,0.00,40.00,0,-999,0,0.00
2014-4-24,65,54,46,-100,-100,-100,0,0,100,0.00,40.00,0,-999,0,0.00
2014-4-25,51,46,39,-100,-100,-100,0,0,100,0.00,40.00,0,-999,0,0.48
2014-4-26,60,46,37,-100,-100,-100,0,0,100,0.00,40.00,0,-999,0,0.28
2014-4-27,62,50,42,-100,-100,-100,0,0,100,0.00,40.00,0,-999,0,0.00
2014-4-28,72,58,44,-100,-100,-100,0,0,100,0.00,40.00,0,-999,0,0.00
2014-4-29,82,70,58,-100,-100,-100,0,0,100,0.00,40.00,0,-999,0,0.00
2014-4-30,84,73,66,-100,-100,-100,0,0,100,0.00,40.00,0,-999,0,0.00
2014-5-1,86,74,59,-100,-100,-100,0,0,100,0.00,40.00,0,-999,0,0.00
2014-5-2,81,69,59,-100,-100,-100,0,0,100,0.00,40.00,0,-999,0,0.00
2014-5-3,70,56,47,-100,-100,-100,0,0,100,0.00,40.00,0,-999,0,0.00
2014-5-4,64,54,45,-100,-100,-100,0,0,100,0.00,40.00,0,-999,0,0.00
2014-5-5,63,53,44,-100,-100,-100,0,0,100,0.00,40.00,0,-999,0,0.00
2014-5-6,72,55,39,-100,-100,-100,0,0,100,0.00,40.00,0,-999,0,0.00
2014-5-13,87,77,69,-100,-100,-100,0,0,100,0.00,40.00,0,-999,0,0.00
2014-5-14,89,76,63,-100,-100,-100,0,0,100,0.00,40.00,0,-999,0,0.00
2014-5-15,88,75,64,-100,-100,-100,0,0,100,0.00,40.00,0,-999,0,0.00
2014-5-16,82,68,53,-100,-100,-100,0,0,100,0.00,40.00,0,-999,0,0.00
2014-5-17,79,62,51,-100,-100,-100,0,0,100,0.00,40.00,0,-999,0,0.00
2014-5-18,72,59,49,-100,-100,-100,0,0,100,0.00,40.00,0,-999,0,0.00
2014-5-19,68,56,46,-100,-100,-100,0,0,100,0.00,40.00,0,-999,0,0.00
2014-5-20,70,58,46,-100,-100,-100,0,0,100,0.00,40.00,0,-999,0,0.00
2014-5-21,79,65,52,-100,-100,-100,0,0,100,0.00,40.00,0,-999,0,0.00
2014-5-22,82,65,48,-100,-100,-100,0,0,100,0.00,40.00,0,-999,0,0.00
2014-5-23,82,70,57,-100,-100,-100,0,0,100,0.00,40.00,0,-999,0,0.00
2014-5-24,83,71,58,-100,-100,-100,0,0,100,0.00,40.00,0,-999,0,0.00
2014-5-25,90,74,59,-100,-100,-100,0,0,100,0.00,40.00,0,-999,0,0.00
2014-5-26,86,71,56,-100,-100,-100,0,0,100,0.00,40.00,0,-999,0,0.00
2014-5-27,81,64,49,-100,-100,-100,0,0,100,0.00,40.00,0,-999,0,0.00
2014-5-28,79,63,47,-100,-100,-100,0,0,100,0.00,40.00,0,-999,0,0.00
2014-5-29,82,68,59,-100,-100,-100,0,0,100,0.00,40.00,0,-999,0,0.00
2014-5-30,74,59,50,-100,-100,-100,0,0,100,0.00,40.00,0,-999,0,0.00
2014-5-31,79,63,43,-100,-100,-100,0,0,100,0.00,40.00,0,-999,0,0.00
2014-6-1,83,70,59,-100,-100,-100,0,0,100,0.00,40.00,0,-999,0,0.00
2014-6-2,73,58,45,-100,-100,-100,0,0,100,0.00,40.00,0,-999,0,0.00
2014-6-3,78,60,45,-100,-100,-100,0,0,100,0.00,40.00,0,-999,0,0.00
2014-6-4,87,74,60,-100,-100,-100,0,0,100,0.00,40.00,0,-999,0,0.00
2014-6-5,87,74,60,-100,-100,-100,0,0,100,0.00,40.00,0,-999,0,0.00
2014-6-6,83,69,55,-100,-100,-100,0,0,100,0.00,40.00,0,-999,0,0.00
2014-6-7,88,75,58,-100,-100,-100,0,0,100,0.00,40.00,0,-999,0,0.00
2014-6-8,100,86,70,-100,-100,-100,0,0,100,0.00,40.00,0,-999,0,0.00
2014-6-9,98,84,71,-100,-100,-100,0,0,100,0.00,40.00,0,-999,0,0.00
2014-6-10,90,77,53,-100,-100,-100,0,0,100,0.00,40.00,0,-999,0,0.00
2014-6-11,68,56,49,-100,-100,-100,0,0,100,0.00,40.00,0,-999,0,0.00
2014-6-12,78,59,47,-100,-100,-100,0,0,100,0.00,40.00,0,-999,0,0.00
2014-6-13,81,66,48,-100,-100,-100,0,0,100,0.00,40.00,0,-999,0,0.00
2014-6-14,81,70,60,-100,-100,-100,0,0,100,0.00,40.00,0,-999,0,0.00
2014-6-15,78,64,50,-100,-100,-100,0,0,100,0.00,40.00,0,-999,0,0.00
2014-6-16,74,60,47,-100,-100,-100,0,0,100,0.00,40.00,0,-999,0,0.00
2014-6-17,80,65,48,-100,-100,-100,0,0,100,0.00,40.00,0,-999,0,0.00
2014-6-18,84,73,62,-100,-100,-100,0,0,100,0.00,40.00,0,-999,0,0.00
2014-6-19,86,71,56,-100,-100,-100,0,0,100,0.00,40.00,0,-999,0,0.00
2014-6-20,87,74,59,-100,-100,-100,0,0,100,0.00,40.00,0,-999,0,0.00
2014-6-21,83,70,57,-100,-100,-100,0,0,100,0.00,40.00,0,-999,0,0.00
2014-6-22,81,68,52,-100,-100,-100,0,0,100,0.00,40.00,0,-999,0,0.00
2014-6-23,86,69,53,-100,-100,-100,0,0,100,0.00,40.00,0,-999,0,0.00
2014-6-24,86,71,57,-100,-100,-100,0,0,100,0.00,40.00,0,-999,0,0.00
2014-6-25,79,65,55,-100,-100,-100,0,0,100,0.00,40.00,0,-999,0,0.00
2014-6-26,74,62,53,-100,-100,-100,0,0,100,0.00,40.00,0,-999,0,0.00
2014-6-27,79,66,53,-100,-100,-100,0,0,100,0.00,40.00,0,-999,0,0.00
2014-6-28,86,69,51,-100,-100,-100,0,0,100,0.00,40.00,0,-999,0,0.00
2014-6-29,95,78,58,-100,-100,-100,0,0,100,0.00,40.00,0,-999,0,0.00
2014-6-30,98,84,66,-100,-100,-100,0,0,100,0.00,40.00,0,-999,0,0.00
2014-7-1,81,69,59,-100,-100,-100,0,0,100,0.00,40.00,0,-999,0,0.00
2014-7-2,85,68,53,-100,-100,-100,0,0,100,0.00,40.00,0,-999,0,0.00
2014-7-3,85,72,56,-100,-100,-100,0,0,100,0.00,40.00,0,-999,0,0.00
2014-7-4,88,74,59,-100,-100,-100,0,0,100,0.00,40.00,0,-999,0,0.00
2014-7-5,92,78,59,-100,-100,-100,0,0,100,0.00,40.00,0,-999,0,0.00
2014-7-6,93,79,64,-100,-100,-100,0,0,100,0.00,40.00,0,-999,0,0.00
2014-7-7,92,80,70,-100,-100,-100,0,0,100,0.00,40.00,0,-999,0,0.00
2014-7-8,89,75,60,-100,-100,-100,0,0,100,0.00,40.00,0,-999,0,0.00
2014-7-9,83,65,54,-100,-100,-100,0,0,100,0.00,40.00,0,-999,0,0.00
2014-7-10,77,61,51,-100,0,200,0,0,100,0.00,40.00,0,0,0,0.00
2014-7-11,79,61,52,-100,0,200,0,0,100,0.00,40.00,0,0,0,0.00
2014-7-12,85,68,50,-100,0,200,0,0,100,0.00,40.00,0,0,0,0.00
2014-7-13,95,77,60,-100,0,200,0,0,100,0.00,40.00,0,0,0,0.00
2014-7-14,97,81,61,-100,0,200,0,0,100,0.00,40.00,0,0,0,0.00
2014-7-15,81,70,61,-100,0,200,0,0,100,0.00,40.00,0,0,0,0.00
2014-7-16,70,63,57,-100,0,200,0,0,100,0.00,40.00,0,0,0,0.00
2014-7-17,76,62,54,-100,0,200,0,0,100,0.00,40.00,0,0,0,0.00
2014-7-18,76,61,52,-100,0,200,0,0,100,0.00,40.00,0,0,0,0.00
2014-7-19,85,68,57,-100,0,200,0,0,100,0.00,40.00,0,0,0,0.00
2014-7-20,68,62,59,-100,0,200,0,0,100,0.00,40.00,0,0,0,0.00
2014-7-21,75,64,56,-100,0,200,0,0,100,0.00,40.00,0,0,0,0.00
2014-7-22,79,64,53,-100,0,200,0,0,100,0.00,40.00,0,0,0,0.00
2014-7-23,79,66,54,-100,0,200,0,0,100,0.00,40.00,0,0,0,0.00
2014-7-24,90,73,59,-100,0,200,0,0,100,0.00,40.00,0,0,0,0.00
2014-7-25,96,80,66,-100,0,200,0,0,100,0.00,40.00,0,0,0,0.00
2014-7-26,96,82,66,-100,0,200,0,0,100,0.00,40.00,0,0,0,0.00
2014-7-27,95,78,64,-100,0,200,0,0,100,0.00,40.00,0,0,0,0.00
2014-7-28,87,75,64,-100,0,200,0,0,100,0.00,40.00,0,0,0,0.00
2014-7-29,92,76,61,-100,0,200,0,0,100,0.00,40.00,0,0,0,0.00
2014-7-30,93,81,68,-100,0,200,0,0,100,0.00,40.00,0,0,0,0.00
2014-7-31,97,82,69,-100,0,200,0,0,100,0.00,40.00,0,0,0,0.00
2014-8-1,100,84,70,-100,0,200,0,0,100,0.00,40.00,0,0,0,0.00
2014-8-2,87,75,63,-100,0,200,0,0,100,0.00,40.00,0,0,0,0.00
2014-8-3,80,64,52,-100,0,200,0,0,100,0.00,40.00,0,0,0,0.00
2014-8-4,76,63,51,-100,0,200,0,0,100,0.00,40.00,0,0,0,0.00
2014-8-5,73,67,57,-100,0,200,0,0,100,0.00,40.00,0,0,0,0.00
2014-8-6,86,75,63,-100,0,200,0,0,100,0.00,40.00,0,0,0,0.00
2014-8-7,90,79,64,-100,0,200,0,0,100,0.00,40.00,0,0,0,0.00
2014-8-8,88,72,58,-100,0,200,0,0,100,0.00,40.00,0,0,0,0.00
2014-8-9,81,65,53,-100,0,200,0,0,100,0.00,40.00,0,0,0,0.00
2014-8-10,83,62,48,-100,0,200,0,0,100,0.00,40.00,0,0,0,0.00
2014-8-11,89,72,57,-100,0,200,0,0,100,0.00,40.00,0,0,0,0.00
2014-8-12,71,59,51,-100,0,200,0,0,100,0.00,40.00,0,0,0,0.00
2014-8-13,78,62,51,-100,0,200,0,0,100,0.00,40.00,0,0,0,0.00
2014-8-14,83,68,55,-100,0,200,0,0,100,0.00,40.00,0,0,0,0.00
2014-8-15,88,72,54,-100,0,200,0,0,100,0.00,40.00,0,0,0,0.00
2014-8-16,90,73,55,-100,0,200,0,0,100,0.00,40.00,0,0,0,0.00
2014-8-17,88,73,52,-100,0,200,0,0,100,0.00,40.00,0,0,0,0.00
2014-8-18,82,68,54,-100,0,200,0,0,100,0.00,40.00,0,0,0,0.00
2014-8-19,78,61,52,-100,0,200,0,0,100,0.00,40.00,0,0,0,0.00
2014-8-20,63,57,52,-100,0,200,0,0,100,0.00,40.00,0,0,0,0.00
2014-8-21,84,69,50,-100,0,200,0,0,100,0.00,40.00,0,0,0,0.00
2014-8-22,81,64,53,-100,0,200,0,0,100,0.00,40.00,0,0,0,0.00
2014-8-23,83,67,50,-100,0,200,0,0,100,0.00,40.00,0,0,0,0.00
2014-8-24,79,64,52,-100,0,200,0,0,100,0.00,40.00,0,0,0,0.00
2014-8-25,77,60,50,-100,0,200,0,0,100,0.00,40.00,0,0,0,0.00
2014-8-26,83,66,50,-100,0,200,0,0,100,0.00,40.00,0,0,0,0.00
2014-8-27,92,74,59,-100,0,200,0,0,100,0.00,40.00,0,0,0,0.00
2014-8-28,91,75,58,-100,0,200,0,0,100,0.00,40.00,0,0,0,0.00
2014-8-29,86,72,62,-100,0,200,0,0,100,0.00,40.00,0,0,0,0.00
2014-8-30,93,74,59,-100,0,200,0,0,100,0.00,40.00,0,0,0,0.00
2014-8-31,90,75,60,-100,0,200,0,0,100,0.00,40.00,0,0,0,0.00
2014-9-1,94,82,67,-100,0,200,0,0,100,0.00,40.00,0,0,0,0.00
2014-9-2,83,71,57,-100,0,200,0,0,100,0.00,40.00,0,0,0,0.00
2014-9-3,86,70,52,-100,0,200,0,0,100,0.00,40.00,0,0,0,0.00
2014-9-4,86,73,60,-100,0,200,0,0,100,0.00,40.00,0,0,0,0.00
2014-9-5,86,66,49,-100,0,200,0,0,100,0.00,40.00,0,0,0,0.00
2014-9-6,85,69,55,-100,0,200,0,0,100,0.00,40.00,0,0,0,0.00
2014-9-7,84,67,52,-100,0,200,0,0,100,0.00,40.00,0,0,0,0.00
2014-9-8,75,60,48,-100,0,200,0,0,100,0.00,40.00,0,0,0,0.00
2014-9-9,83,67,51,-100,0,200,0,0,100,0.00,40.00,0,0,0,0.00
2014-9-10,95,80,68,-100,0,200,0,0,100,0.00,40.00,0,0,0,0.00
2014-9-11,95,80,66,-100,0,200,0,0,100,0.00,40.00,0,0,0,0.00
2014-9-12,97,82,69,-100,0,200,0,0,100,0.00,40.00,0,0,0,0.00
2014-9-13,95,80,68,-100,0,200,0,0,100,0.00,40.00,0,0,0,0.00
2014-9-14,90,78,66,-100,0,200,0,0,100,0.00,40.00,0,0,0,0.00
2014-9-15,84,71,58,-100,0,200,0,0,100,0.00,40.00,0,0,0,0.00
2014-9-16,88,69,55,-100,0,200,0,0,100,0.00,40.00,0,0,0,0.00
2014-9-17,80,67,60,-100,0,200,0,0,100,0.00,40.00,0,0,0,0.00
2014-9-18,72,63,58,-100,0,200,0,0,100,0.00,40.00,0,0,0,0.16
2014-9-19,79,67,55,-100,0,200,0,0,100,0.00,40.00,0,0,0,0.04
2014-9-20,79,68,60,-100,0,200,0,0,100,0.00,40.00,0,0,0,0.00
2014-9-21,76,62,55,-100,0,200,0,0,100,0.00,40.00,0,0,0,0.00
2014-9-22,81,67,52,-100,0,200,0,0,100,0.00,40.00,0,0,0,0.00
2014-9-23,82,66,55,-100,0,200,0,0,100,0.00,40.00,0,0,0,0.00
2014-9-24,75,63,58,-100,0,200,0,0,100,0.00,40.00,0,0,0,0.00
2014-9-25,68,58,53,-100,0,200,0,0,100,0.00,40.00,0,0,0,0.36
2014-9-26,72,57,51,-100,0,200,0,0,100,0.00,40.00,0,0,0,0.32
2014-9-27,75,61,48,-100,0,200,0,0,100,0.00,40.00,0,0,0,0.04
2014-9-28,72,60,50,-100,0,200,0,0,100,0.00,40.00,0,0,0,0.00
2014-9-29,74,62,53,-100,0,200,0,0,100,0.00,40.00,0,0,0,0.00
2014-9-30,79,64,51,-100,0,200,0,0,100,0.00,40.00,0,0,0,0.00
2014-10-1,83,70,61,-100,0,200,0,0,100,0.00,40.00,0,0,0,0.00
2014-10-2,86,73,65,-100,0,200,0,0,100,0.00,40.00,0,0,0,0.00
2014-10-3,94,77,65,-100,0,200,0,0,100,0.00,40.00,0,0,0,0.00
2014-10-4,94,78,66,-100,0,200,0,0,100,0.00,40.00,0,0,0,0.00
2014-10-5,97,80,66,-100,0,200,0,0,100,0.00,40.00,0,0,0,0.00
2014-10-6,93,80,68,-100,0,200,0,0,100,0.00,40.00,0,0,0,0.00
2014-10-7,91,76,65,-100,0,200,0,0,100,0.00,40.00,0,0,0,0.00
2014-10-8,92,78,65,-100,0,200,0,0,100,0.00,40.00,0,0,0,0.00
2014-10-9,81,69,57,-100,0,200,0,0,100,0.00,40.00,0,0,0,0.00
2014-10-10,81,69,57,-100,0,200,0,0,100,0.00,40.00,0,0,0,0.00
2014-10-11,84,73,59,-100,0,200,0,0,100,0.00,40.00,0,0,0,0.00
2014-10-12,87,76,65,-100,0,200,0,0,100,0.00,40.00,0,0,0,0.00
2014-10-13,89,75,60,-100,0,200,0,0,100,0.00,40.00,0,0,0,0.00
2014-10-14,59,55,50,-100,0,200,0,0,100,0.00,40.00,0,0,0,0.04
2014-10-15,65,56,50,-100,0,200,0,0,100,0.00,40.00,0,0,0,0.88
2014-10-16,71,57,48,-100,0,200,0,0,100,0.00,40.00,0,0,0,0.40
2014-10-17,66,56,48,-100,0,200,0,0,100,0.00,40.00,0,0,0,0.00
2014-10-18,76,63,55,-100,0,200,0,0,100,0.00,40.00,0,0,0,0.00
2014-10-19,75,63,53,-100,0,200,0,0,100,0.00,40.00,0,0,0,0.00
2014-10-20,62,56,50,-100,0,200,0,0,100,0.00,40.00,0,0,0,0.04
2014-10-21,69,55,44,-100,0,200,0,0,100,0.00,40.00,0,0,0,0.04
2014-10-22,72,58,48,-100,0,200,0,0,100,0.00,40.00,0,0,0,0.00
2014-10-23,67,59,54,-100,0,200,0,0,100,0.00,40.00,0,0,0,0.00
2014-10-24,72,58,50,-100,0,200,0,0,100,0.00,40.00,0,0,0,0.00
2014-10-25,57,54,51,-100,0,200,0,0,100,0.00,40.00,0,0,0,0.64
2014-10-26,66,54,44,-100,0,200,0,0,100,0.00,40.00,0,0,0,0.04
2014-10-27,69,56,46,-100,0,200,0,0,100,0.00,40.00,0,0,0,0.00
2014-10-28,74,60,48,-100,0,200,0,0,100,0.00,40.00,0,0,0,0.00
2014-10-29,81,66,56,-100,0,200,0,0,100,0.00,40.00,0,0,0,0.00
2014-10-30,75,63,54,-100,0,200,0,0,100,0.00,40.00,0,0,0,0.00
2014-10-31,55,52,47,-100,0,200,0,0,100,0.00,40.00,0,0,0,0.28
2014-11-1,62,50,41,-100,0,200,0,0,100,0.00,40.00,0,0,0,0.04
2014-11-2,66,53,46,-100,0,200,0,0,100,0.00,40.00,0,0,0,0.04
2014-11-3,68,56,48,-100,0,200,0,0,100,0.00,40.00,0,0,0,0.00
2014-11-4,72,57,48,-100,0,200,0,0,100,0.00,40.00,0,0,0,0.00
2014-11-5,78,63,53,-100,0,200,0,0,100,0.00,40.00,0,0,0,0.00
2014-11-6,74,62,52,-100,0,200,0,0,100,0.00,40.00,0,0,0,0.00
2014-11-7,76,61,52,-100,0,200,0,0,100,0.00,40.00,0,0,0,0.00
2014-11-8,79,66,58,-100,0,200,0,0,100,0.00,40.00,0,0,0,0.00
2014-11-9,79,64,56,-100,0,200,0,0,100,0.00,40.00,0,0,0,0.00
2014-11-10,75,61,50,-100,0,200,0,0,100,0.00,40.00,0,0,0,0.00
2014-11-11,54,51,49,-100,0,200,0,0,100,0.00,40.00,0,0,0,0.00
2014-11-12,62,52,46,-100,0,200,0,0,100,0.00,40.00,0,0,0,0.04
2014-11-13,58,52,49,-100,0,200,0,0,100,0.00,40.00,0,0,0,0.28
2014-11-14,62,51,44,-100,0,200,0,0,100,0.00,40.00,0,0,0,0.04
2014-11-15,63,52,43,-100,0,200,0,0,100,0.00,40.00,0,0,0,0.04
2014-11-16,59,50,44,-100,0,200,0,0,100,0.00,40.00,0,0,0,0.00
2014-11-17,62,52,46,-100,0,200,0,0,100,0.00,40.00,0,0,0,0.00
2014-11-18,59,52,46,-100,0,200,0,0,100,0.00,40.00,0,0,0,0.00
2014-11-19,52,47,43,-100,0,200,0,0,100,0.00,40.00,0,0,0,0.68
2014-11-20,49,47,44,-100,0,200,0,0,100,0.00,40.00,0,0,0,0.44
2014-11-21,52,47,42,-100,0,200,0,0,100,0.00,40.00,0,0,0,0.04
2014-11-22,64,53,46,-100,0,200,0,0,100,0.00,40.00,0,0,0,1.12
2014-11-23,60,50,44,-100,0,200,0,0,100,0.00,40.00,0,0,0,0.12
2014-11-24,67,54,43,-100,0,200,0,0,100,0.00,40.00,0,0,0,0.00
2014-11-25,65,54,50,-100,0,200,0,0,100,0.00,40.00,0,0,0,0.00
2014-11-26,69,56,49,-100,0,200,0,0,100,0.00,40.00,0,0,0,0.00
2014-11-27,69,56,47,-100,0,200,0,0,100,0.00,40.00,0,0,0,0.00
2014-11-28,59,50,43,-100,0,200,0,0,100,0.00,40.00,0,0,0,0.24
2014-11-29,57,52,50,-100,0,200,0,0,100,0.00,40.00,0,0,0,0.92
2014-11-30,51,49,48,-100,0,200,0,0,100,0.00,40.00,0,0,0,0.68
2014-12-1,60,53,48,-100,0,200,0,0,100,0.00,40.00,0,0,0,0.24
2014-12-2,54,50,49,-100,0,200,0,0,100,0.00,40.00,0,0,0,1.24
2014-12-3,56,53,49,-100,0,200,0,0,100,0.00,40.00,0,0,0,2.76
2014-12-4,56,52,50,-100,0,200,0,0,100,0.00,40.00,0,0,0,0.20
2014-12-5,56,54,51,-100,0,200,0,0,100,0.00,40.00,0,0,0,1.04
2014-12-6,60,53,49,-100,0,200,0,0,100,0.00,40.00,0,0,0,1.80
2014-12-7,57,52,49,-100,0,200,0,0,100,0.00,40.00,0,0,0,0.04
2014-12-8,59,55,51,-100,0,200,0,0,100,0.00,40.00,0,0,0,0.04
2014-12-9,57,54,49,-100,0,200,0,0,100,0.00,40.00,0,0,0,0.04
2014-12-10,53,51,50,-100,0,200,0,0,100,0.00,40.00,0,0,0,1.56
2014-12-11,53,49,45,-100,0,200,0,0,100,0.00,40.00,0,0,0,7.04
2014-12-12,48,44,41,-100,0,200,0,0,100,0.00,40.00,0,0,0,1.00
2014-12-13,50,43,38,-100,0,200,0,0,100,0.00,40.00,0,0,0,0.04
2014-12-14,47,43,40,-100,0,200,0,0,100,0.00,40.00,0,0,0,0.04
2014-12-15,46,44,41,-100,0,200,0,0,100,0.00,40.00,0,0,0,1.96
2014-12-16,50,46,43,-100,0,200,0,0,100,0.00,40.00,0,0,0,1.20
2014-12-17,50,45,42,-100,0,200,0,0,100,0.00,40.00,0,0,0,0.68
2014-12-18,50,46,43,-100,0,200,0,0,100,0.00,40.00,0,0,0,0.44
2014-12-19,51,48,47,-100,0,200,0,0,100,0.00,40.00,0,0,0,1.32
2014-12-20,50,49,47,-100,0,200,0,0,100,0.00,40.00,0,0,0,0.24
2014-12-21,58,54,50,-100,0,200,0,0,100,0.00,40.00,0,0,0,0.12
2014-12-22,66,56,48,-100,0,200,0,0,100,0.00,40.00,0,0,0,0.04
2014-12-23,69,58,48,-100,0,200,0,0,100,0.00,40.00,0,0,0,0.00
2014-12-24,52,48,42,-100,0,200,0,0,100,0.00,40.00,0,0,0,0.04